Location: Quebec
(46.8000°N, 71.2500°W)
Time: 06:23:42
(UTC-05:00)

Vanguard 2 - All Passes

Search period start: 13 December 2017 00:00
Search period end: 23 December 2017 00:00
Orbit: 553 x 2939 km, 32.9° (Epoch: 13 December)

Date Brightness Start Highest point End Pass type
(mag) Time Alt. Az. Time Alt. Az. Time Alt. Az.
13 Dec - 14:03:32 10° S 14:06:03 12° SSE 14:08:16 10° SE daylight
13 Dec - 16:10:17 10° SW 16:14:00 17° S 16:17:01 10° SE daylight
13 Dec - 18:19:43 10° SW 18:21:23 12° SSW 18:22:56 10° S visible
14 Dec - 14:19:35 10° SSW 14:23:58 15° S 14:27:28 10° SE daylight
14 Dec - 16:27:53 10° SW 16:31:50 18° S 16:35:00 10° SE visible
15 Dec - 12:31:27 10° S 12:33:25 11° SSE 12:35:14 10° SE daylight
15 Dec - 14:36:30 10° SW 14:41:52 19° S 14:45:56 10° SE daylight
15 Dec - 16:45:43 10° SW 16:49:38 18° S 16:52:47 10° SSE visible
16 Dec - 12:46:06 10° SSW 12:51:22 15° SSE 12:55:34 10° SE daylight
16 Dec - 14:53:48 10° SW 14:59:46 22° S 15:04:06 10° SE daylight
16 Dec - 17:03:44 10° SW 17:07:23 17° SSW 17:10:23 10° SSE visible
17 Dec - 13:02:24 10° SSW 13:09:18 19° SSE 13:14:26 10° ESE daylight
17 Dec - 15:11:24 10° SW 15:17:38 24° S 15:22:06 10° SE daylight
17 Dec - 17:22:00 10° SW 17:25:06 15° SSW 17:27:43 10° SSE visible
18 Dec - 11:13:20 10° S 11:18:15 13° SSE 11:22:26 10° SE daylight
18 Dec - 13:19:19 10° SW 13:27:14 23° S 13:32:50 10° ESE daylight
18 Dec - 15:29:10 10° WSW 15:35:28 24° S 15:39:56 10° SE daylight
18 Dec - 17:40:42 10° SW 17:42:44 12° SSW 17:44:33 10° S visible
19 Dec - 11:28:33 10° SSW 11:36:11 18° SSE 11:42:08 10° ESE daylight
19 Dec - 13:36:35 10° SW 13:45:09 27° S 13:50:59 10° ESE daylight
19 Dec - 15:47:07 10° WSW 15:53:15 24° SSW 15:57:39 10° SE daylight
20 Dec - 11:44:48 10° SSW 11:54:08 23° SSE 12:00:56 10° ESE daylight
20 Dec - 13:54:07 10° SW 14:03:02 30° S 14:09:00 10° ESE daylight
20 Dec - 16:05:12 10° WSW 16:10:59 22° SSW 16:15:11 10° SSE daylight
21 Dec - 09:55:51 10° S 10:02:36 14° SSE 10:08:20 10° ESE daylight
21 Dec - 12:01:36 10° SW 12:12:03 27° SSE 12:19:21 10° ESE daylight
21 Dec - 14:11:52 10° WSW 14:20:54 31° S 14:26:52 10° SE daylight
21 Dec - 16:23:28 10° WSW 16:28:37 19° SSW 16:32:31 10° SSE visible
22 Dec - 10:10:56 10° SSW 10:20:28 20° SSE 10:28:00 10° ESE daylight
22 Dec - 12:18:47 10° SW 12:29:58 31° S 12:37:32 10° ESE daylight
22 Dec - 14:29:45 10° WSW 14:38:44 31° S 14:44:39 10° SE daylight
22 Dec - 16:42:01 10° WSW 16:46:12 16° SSW 16:49:32 10° S visible
